Home > Weather > Aklavik > Past weeks

Flag for Canada Weather for the Past 2 Weeks in Aklavik, Northwest Territories, Canada

Now
-24 °F

Clear.


Feels Like: -35 °F
Forecast: -24 / -10 °F
Wind: 3 mph from East

Location: Inuvik

Current Time: Feb 7, 2016 at 6:35:39 AM

Latest Report: Feb 7, 2016 at 6:00 AM


Visibility: 15 mi

Pressure: 30.35 "Hg

Humidity: 75%

Dew point: -29 °F

Location of AklavikLocation

Historic Weather in Aklavik — Graph

°F

Aklavik Temperature Yesterday

Maximum temperature yesterday: -17 °F (at 4:00 PM)
Minimum temperature yesterday: -22 °F (at 12:00 AM)
Average temperature yesterday: -19 °F

High & Low Weather Summary for the Past Weeks

 TemperatureHumidityPressure
High14 °F (Jan 31, 5:00 AM)92% (Jan 29, 7:00 AM)30.37 "Hg (Jan 29, 7:00 AM)
Low-33 °F (Feb 5, 3:00 AM)67% (Feb 4, 10:00 AM)29.22 "Hg (Jan 28, 10:54 AM)
Average-6 °F80%29.87 "Hg
* Reported Jan 23 5:00 AM — Feb 7 5:00 AM, Aklavik, Weather by CustomWeather, © 2016

Note: Actual official high and low records may vary slightly from our data, if they occured in-between our weather recording intervals... More about our weather records

Advertising

Aklavik Weather History for the Previous 24 Hours

 ConditionsComfort  
Time TempWeatherWind HumidityBarometerVisibility
5:00 AM
Sun, Feb 7
-22 °FPassing clouds.2 mph75%30.35 "Hg15 mi
4:00 AM-22 °FOvercast.3 mph75%30.34 "Hg15 mi
3:00 AM-20 °FOvercast.2 mph75%30.33 "Hg15 mi
2:00 AM-18 °FOvercast.2 mph75%30.31 "Hg15 mi
1:00 AM-18 °FOvercast.No wind75%30.29 "Hg15 mi
12:00 AM-18 °FOvercast.No wind75%30.27 "Hg15 mi
11:00 PM
Sat, Feb 6
-18 °FPassing clouds.3 mph75%30.25 "Hg15 mi
10:00 PM-17 °FPassing clouds.2 mph76%30.24 "Hg15 mi
9:00 PM-17 °FPassing clouds.5 mph76%30.22 "Hg15 mi
8:00 PM-17 °FPassing clouds.2 mph76%30.21 "Hg15 mi
7:00 PM-17 °FPartly sunny.No wind76%30.19 "Hg15 mi
6:00 PM-17 °FPartly sunny.2 mph76%30.17 "Hg15 mi
5:00 PM-18 °FPartly sunny.2 mph75%30.16 "Hg15 mi
4:00 PM-17 °FPartly sunny.No wind69%30.14 "Hg15 mi
3:00 PM-18 °FPartly sunny.No wind75%30.11 "Hg15 mi
2:00 PM-18 °FSnow flurries. Partly sunny.5 mph75%30.10 "Hg15 mi
1:00 PM-20 °FSnow flurries. Partly sunny.2 mph75%30.07 "Hg15 mi
12:00 PM-22 °FSnow flurries. Partly cloudy.No wind75%30.05 "Hg15 mi
11:00 AM-22 °FSnow flurries. Partly cloudy.2 mph75%30.03 "Hg15 mi
10:00 AM-20 °FLight snow. Passing clouds.2 mph68%30.01 "Hg15 mi
9:00 AM-20 °FLight snow. Passing clouds.No wind75%29.99 "Hg15 mi
8:00 AM-20 °FLight snow. Overcast.3 mph75%29.97 "Hg10 mi
7:00 AM-18 °FOvercast.3 mph75%29.95 "Hg15 mi
6:00 AM-18 °FOvercast.2 mph75%29.93 "Hg15 mi
Weather by CustomWeather, © 2016

See weather overviewHow to use our weather pages